Wind_Speed
20 19 16 15 16 18 20 23 24 24 25 25 25 24 21 19 18 19 19 19 19 19 18 17 16 14 13 13 14 15 15 16 17 17 18 18 18 17 17 16 15 14 12 11 11 11 10 10 11 11 11 10 10 10 9 9 9 9 9 9 9 9 9 8 7 6 5 4 4 4 5 6 6 5 6 6 6 6 5 4 3 2 1 1 0
20 19 17 17 18 20 21 24 24 23 24 25 25 23 21 19 20 20 20 20 20 19 18 17 15 14 13 12 13 15 15 16 17 17 18 18 17 17 17 16 15 13 11 11 10 10 10 10 10 10 10 10 10 9 9 9 9 9 9 9 9 9 8 8 7 5 5 4 4 4 5 6 6 6 6 6 6 6 5 5 4 3 2 1 0
20 19 19 19 20 22 24 26 25 25 26 26 25 24 22 22 22 22 21 21 20 19 18 16 15 13 12 12 13 15 15 16 17 17 18 17 17 17 16 16 14 12 10 10 10 10 10 10 10 10 10 10 10 9 9 9 9 9 9 9 9 9 8 7 6 5 4 4 4 4 5 6 6 6 6 6 6 6 6 5 4 4 3 1 0
20 19 20 21 23 25 27 28 28 28 29 27 26 25 24 24 24 23 22 21 20 19 18 16 14 13 13 13 13 15 16 17 17 17 18 17 17 16 16 15 13 11 10 9 9 10 10 10 10 10 10 10 9 9 9 9 9 9 9 9 9 8 7 6 5 4 4 4 4 4 5 6 6 6 6 6 6 6 6 5 5 4 3 1 0
18 19 21 23 26 28 30 31 31 31 31 30 28 27 26 25 25 24 23 22 20 19 18 16 14 13 13 14 14 15 17 17 18 18 18 18 17 16 16 15 13 11 9 9 9 9 10 9 9 10 10 9 9 9 8 9 9 9 9 8 8 7 7 5 4 3 3 4 4 4 5 6 6 6 6 6 6 6 6 6 5 4 3 1 1
18 21 23 25 27 29 31 32 33 34 33 32 31 30 27 26 25 25 24 22 21 19 17 16 15 14 14 15 15 16 17 18 18 18 18 18 17 16 16 15 13 11 9 8 9 9 9 9 9 9 9 9 9 9 9 9 10 10 9 8 7 7 6 5 4 3 3 4 3 4 5 5 6 5 5 6 6 7 7 7 6 5 4 2 1
21 23 24 26 28 30 32 34 35 35 35 34 33 30 28 27 26 25 24 23 21 19 17 16 15 15 15 16 17 17 18 19 19 19 18 18 17 16 16 15 12 10 9 9 9 9 8 8 8 9 9 9 9 9 9 9 10 10 9 8 7 7 5 4 3 3 4 3 3 4 4 5 5 5 5 5 6 6 7 7 6 6 5 4 3
23 24 26 28 30 32 34 35 35 35 35 34 32 29 28 27 26 26 25 24 22 19 17 16 15 15 16 17 18 18 19 20 20 20 19 18 17 15 16 15 13 11 10 9 9 8 8 7 8 8 9 9 9 9 9 9 10 10 9 8 8 7 5 4 3 3 3 4 4 4 4 5 5 5 5 5 5 6 6 6 6 6 5 5 4
25 27 29 31 33 34 35 36 36 36 35 33 30 28 27 27 26 26 25 24 22 19 17 16 15 16 17 18 19 19 20 21 21 21 19 18 16 14 15 16 13 11 10 9 8 7 7 7 7 7 8 9 9 10 10 10 10 10 9 8 8 7 5 4 3 3 3 3 4 4 4 4 5 5 5 5 5 5 6 6 6 6 6 5 5
27 29 31 32 33 35 35 35 36 35 33 29 27 26 26 26 26 26 25 24 21 19 17 16 16 17 18 19 20 21 21 22 22 21 20 18 16 14 15 16 14 12 11 9 8 7 6 6 6 6 7 8 9 11 11 10 10 10 9 9 9 8 6 4 3 3 3 3 4 4 4 4 4 5 5 5 5 5 6 6 6 7 6 6 5
29 30 32 33 34 35 34 35 35 31 28 26 26 25 25 25 25 25 25 23 21 18 17 16 17 18 18 19 21 22 22 23 22 22 20 18 16 15 15 16 14 12 10 9 8 8 7 6 6 6 6 7 9 11 12 11 10 10 10 9 9 8 7 4 3 3 3 3 4 4 4 4 4 4 5 5 6 6 6 7 6 7 6 6 6
30 32 33 34 35 34 34 34 30 26 24 25 25 25 25 25 25 25 24 22 20 18 17 17 17 18 19 20 21 22 23 23 23 22 21 19 17 15 15 16 14 12 10 9 9 9 8 8 7 5 5 6 9 12 13 12 10 10 10 10 9 8 7 5 3 4 4 4 4 4 4 4 4 4 5 5 6 6 6 7 7 7 7 6 6
31 32 33 34 34 34 33 31 26 23 23 24 24 24 25 25 25 24 23 21 19 18 18 18 18 19 19 20 21 23 23 24 23 22 21 19 17 15 15 15 15 13 10 9 9 10 10 10 8 7 6 6 8 11 14 13 11 10 10 10 10 9 7 5 4 4 4 4 4 4 4 4 4 4 5 6 6 6 7 7 7 7 7 7 7
31 32 32 33 33 33 30 26 23 22 23 23 24 24 25 25 25 24 22 20 19 18 18 18 18 19 20 21 21 22 23 23 23 22 21 19 17 15 15 15 14 14 11 9 9 11 11 12 11 9 8 7 8 10 13 14 12 10 11 11 10 9 8 6 5 5 4 4 4 4 5 4 4 5 5 5 6 6 6 7 7 7 7 7 7
30 30 31 32 31 28 25 22 21 21 22 23 24 25 26 26 25 23 21 19 19 18 18 18 19 20 20 21 21 21 22 22 23 22 21 19 18 16 14 14 14 13 11 9 10 11 11 13 14 13 9 7 7 9 12 15 14 11 11 12 10 9 9 7 6 5 4 3 4 5 5 5 4 5 5 5 5 6 6 6 7 7 8 8 8
29 29 30 28 25 23 20 19 19 21 22 24 25 26 26 26 24 22 20 19 18 18 18 18 19 20 20 20 20 21 21 22 22 22 21 19 18 15 14 14 13 12 11 10 10 10 11 11 13 14 11 8 8 9 12 14 15 13 12 12 11 10 9 8 7 6 5 4 4 5 6 6 5 5 5 5 5 5 5 6 7 7 8 8 8
27 27 26 24 21 20 19 19 20 21 23 25 26 26 26 25 23 21 20 19 19 18 19 19 19 19 19 19 20 20 22 22 22 21 20 18 16 15 14 15 14 13 13 12 12 13 13 13 12 13 12 10 10 11 12 14 15 14 12 13 12 11 10 9 8 7 6 5 5 5 6 7 6 6 6 5 5 5 5 5 6 7 7 8 8
25 24 23 21 20 19 19 20 21 23 25 26 27 27 26 24 22 20 19 19 19 19 19 19 18 18 19 19 20 22 22 22 21 20 18 16 15 14 14 14 14 14 14 14 14 15 17 20 19 16 13 11 12 12 12 14 15 15 13 13 13 11 11 10 10 8 7 6 6 6 6 7 8 7 6 6 5 5 5 6 6 6 6 7 8
23 21 20 20 19 19 19 21 22 24 26 26 26 26 25 23 21 20 19 19 19 19 19 18 18 19 20 21 22 22 22 21 19 18 16 14 14 14 13 13 14 14 15 16 16 16 19 21 21 20 17 13 13 12 12 13 15 16 14 14 14 12 11 11 11 10 8 7 7 7 7 8 8 8 7 7 6 6 6 6 6 6 6 6 7
21 20 19 19 19 19 20 22 24 25 25 25 25 25 24 22 21 20 19 19 19 19 18 18 19 20 20 21 22 21 19 18 17 17 16 15 15 15 15 15 16 17 17 18 19 20 19 16 17 21 19 12 12 12 12 13 15 16 16 14 14 14 12 12 12 11 9 8 8 8 8 9 9 9 9 8 7 7 6 6 6 6 6 6 7
20 19 19 20 20 20 21 22 24 24 24 24 23 23 22 21 21 20 19 18 18 18 18 18 18 19 20 21 21 19 18 18 17 17 17 17 17 17 17 17 17 19 20 21 22 22 18 16 18 20 16 11 11 12 12 13 14 16 16 15 15 15 14 13 13 12 11 10 11 10 10 10 10 10 10 9 9 8 7 7 7 6 7 7 7
20 20 20 21 20 21 21 23 24 24 24 23 22 22 22 22 21 20 18 18 18 18 17 17 18 19 20 21 21 20 20 20 20 19 19 19 19 19 19 19 19 20 20 20 20 19 18 19 19 16 14 12 11 12 12 13 14 15 16 16 16 16 15 14 13 13 13 12 13 13 12 12 12 12 11 11 10 10 9 8 8 7 7 7 7
20 21 21 21 20 20 21 23 24 24 23 22 22 22 23 23 22 20 20 20 19 18 17 17 17 18 19 20 21 22 21 21 21 21 20 20 19 19 19 19 19 19 17 18 20 21 20 20 18 15 14 13 12 12 12 13 14 15 16 17 17 17 15 15 15 15 14 14 14 15 15 14 14 13 13 12 12 11 11 10 9 9 8 8 7
20 21 21 20 20 20 21 23 23 23 22 22 22 22 23 22 22 21 21 21 19 18 17 17 17 18 19 20 21 22 21 21 21 21 19 18 17 18 18 19 19 18 17 19 22 22 21 19 17 15 15 14 13 12 12 13 14 15 17 18 18 18 17 17 17 17 16 15 15 16 17 16 15 15 14 14 14 13 12 11 11 10 10 9 9
19 20 20 19 19 19 21 23 23 22 21 22 22 22 22 22 21 21 21 21 20 18 17 17 17 18 19 19 20 20 20 19 19 17 16 15 15 16 17 18 19 18 19 20 20 20 20 18 16 16 16 14 13 13 13 13 14 16 17 18 19 19 19 18 19 18 18 17 17 18 18 18 17 16 16 16 16 15 14 13 13 12 11 11 11
20 20 20 19 18 19 22 23 22 21 21 22 22 23 22 22 21 21 21 20 18 16 16 16 17 17 18 18 18 18 17 16 16 15 13 14 14 15 15 16 16 16 18 18 17 17 17 16 17 17 16 15 14 13 13 13 14 17 18 19 19 20 20 20 20 19 19 18 18 19 19 19 19 18 17 17 17 17 16 16 15 14 14 13 13
21 21 21 20 19 20 22 21 20 20 21 22 22 22 22 22 22 22 21 20 17 16 15 16 16 16 16 16 15 15 15 15 14 13 13 12 13 13 13 13 12 12 13 14 13 14 14 16 17 17 17 16 15 14 13 13 14 17 19 19 20 20 21 21 20 20 20 19 19 20 21 21 20 19 18 18 18 18 18 18 17 17 16 16 15
21 21 22 21 21 21 20 19 19 19 20 20 21 20 21 21 22 22 21 20 18 15 14 14 14 14 14 14 14 14 14 13 13 12 12 12 12 11 10 9 8 9 10 11 12 13 14 16 17 17 17 16 16 15 14 13 14 16 18 19 20 21 21 20 20 20 20 21 20 20 21 22 21 20 20 19 19 19 19 19 18 18 18 18 17
20 22 22 22 22 21 19 17 18 18 18 19 18 18 19 20 20 21 20 18 15 13 13 12 12 13 13 14 14 14 14 13 12 12 12 13 13 12 10 9 8 9 10 11 12 13 14 15 17 17 16 16 16 15 15 15 15 16 17 18 20 21 21 20 20 21 21 21 21 21 22 22 22 22 21 21 20 20 20 19 19 19 19 19 19
19 22 22 22 22 20 19 18 18 18 17 17 16 16 16 17 18 18 16 14 12 11 11 11 12 13 14 15 15 15 14 12 11 12 13 14 14 13 11 10 10 10 10 10 10 11 13 14 15 15 15 15 14 14 15 15 15 15 16 17 18 19 20 20 20 21 21 22 21 21 22 23 23 23 22 22 22 21 21 20 20 20 20 20 20
18 20 21 22 21 20 19 18 17 17 16 17 16 15 15 15 15 14 13 12 11 11 11 12 14 15 16 16 16 14 12 11 11 12 13 13 12 11 10 9 9 9 9 9 9 9 10 12 12 13 13 13 12 12 13 14 14 15 15 16 17 18 19 19 20 20 21 22 21 21 22 22 22 22 22 23 23 22 22 22 21 21 21 21 21
20 21 21 22 21 20 20 18 16 15 15 15 15 14 13 13 13 13 13 12 12 11 13 14 15 16 16 15 13 12 11 11 11 10 10 9 9 8 8 8 8 8 8 7 7 8 9 10 10 11 11 11 10 10 11 12 13 14 15 16 17 17 17 17 17 19 21 21 21 21 21 22 22 22 23 23 23 23 22 22 21 21 21 21 21
22 23 22 22 21 22 21 18 14 13 14 15 14 12 12 12 13 13 13 13 13 13 15 16 15 15 14 12 11 11 11 10 9 8 8 8 8 8 7 7 7 7 7 6 7 8 9 8 9 10 10 10 9 9 10 11 12 13 14 15 16 16 16 16 16 18 19 19 19 20 20 21 22 23 23 23 22 23 23 22 22 22 21 21 22
24 25 24 24 23 23 22 18 14 14 14 14 13 11 11 12 13 13 13 13 14 15 16 15 14 13 12 12 12 11 9 8 8 8 9 8 8 7 6 6 6 6 6 6 6 7 8 8 8 8 8 8 9 9 9 10 11 12 13 13 14 15 15 15 16 17 17 17 17 18 19 20 21 22 23 22 22 22 23 23 23 22 22 21 21
27 28 28 27 26 24 22 18 16 15 15 14 12 11 11 12 13 13 14 15 15 15 15 14 13 12 12 12 11 10 9 8 9 9 9 9 8 7 6 6 5 5 5 5 6 7 7 7 6 6 6 7 8 9 9 9 10 11 12 13 13 14 15 15 15 15 15 16 15 15 16 17 19 20 21 22 22 22 23 23 23 23 22 21 21
27 27 29 28 25 23 20 18 17 16 15 12 10 10 11 12 13 14 15 16 15 15 14 13 13 12 12 11 10 10 9 9 10 10 10 9 9 8 7 6 5 5 5 5 5 6 6 5 5 5 5 7 8 9 8 8 10 11 12 12 12 14 14 13 13 13 14 14 13 13 14 15 16 18 19 20 21 22 22 22 22 22 22 21 21
22 22 24 26 24 21 19 18 18 16 14 10 9 10 11 13 14 15 16 16 14 14 13 13 12 12 11 11 11 11 10 10 11 11 10 9 9 8 7 7 6 6 5 5 5 6 5 4 5 5 5 6 7 8 9 9 9 9 9 10 10 12 12 11 11 12 13 12 11 12 13 14 14 15 17 18 19 20 20 20 21 21 21 21 21
21 20 21 22 21 19 17 18 18 16 13 11 10 11 13 14 15 16 15 15 14 13 13 13 13 12 12 11 11 11 11 11 11 11 10 9 9 8 7 8 8 7 6 6 6 6 6 5 5 6 5 5 6 7 8 8 7 7 8 7 8 9 9 10 11 12 12 11 10 11 13 13 14 14 15 16 18 18 19 19 19 19 19 19 19
22 20 18 17 19 19 19 19 19 18 15 12 13 15 16 16 16 16 16 15 15 14 14 14 14 13 12 12 11 11 11 11 11 10 9 9 9 8 8 9 10 8 6 7 7 7 6 6 6 6 5 5 6 6 6 7 8 8 8 7 7 8 9 10 10 10 10 9 10 11 11 12 13 14 14 15 16 17 17 18 18 18 18 18 17
17 19 17 16 18 20 20 19 19 20 18 15 16 17 17 17 17 17 17 16 15 15 15 15 14 14 13 12 12 12 11 10 10 9 9 9 9 9 10 11 11 9 8 8 7 7 7 7 7 6 6 6 6 6 6 6 8 8 7 6 5 7 9 9 8 8 8 8 9 11 11 12 13 14 15 15 16 17 17 17 16 16 17 18 17
7 8 8 7 9 11 13 13 14 17 19 19 19 19 18 18 17 17 17 16 16 16 16 15 14 14 13 13 12 12 11 10 10 10 10 10 10 10 11 11 11 10 10 9 8 8 8 8 8 7 6 7 7 7 6 6 6 6 5 4 4 6 8 8 7 8 7 7 9 10 10 11 11 12 13 14 15 16 16 16 15 15 16 16 17
11 7 7 9 10 11 9 7 11 13 17 19 19 19 20 18 16 16 16 16 16 16 16 15 14 14 14 13 13 12 11 11 11 11 11 11 11 11 12 12 11 11 11 10 9 9 9 9 8 7 7 7 8 8 7 7 6 6 5 3 3 5 8 8 7 9 7 7 10 10 9 9 9 9 10 12 13 13 14 13 13 14 14 14 15
17 17 17 15 12 11 9 4 7 10 14 17 18 19 20 19 16 15 15 15 16 17 17 16 15 15 15 14 13 12 12 12 12 11 12 12 12 12 12 12 12 11 11 11 10 10 9 9 8 7 7 7 8 9 9 8 7 7 6 5 5 6 8 7 7 9 8 8 10 10 9 8 8 9 9 9 10 11 12 12 11 11 12 12 13
16 16 16 15 12 8 7 5 3 8 12 15 16 16 18 19 18 17 17 17 17 19 19 17 16 16 16 16 15 14 13 13 12 12 12 12 12 12 13 13 12 12 11 10 10 10 9 9 8 7 7 8 9 10 9 9 9 8 7 7 6 7 7 7 8 9 9 9 10 11 10 9 10 10 9 9 9 10 11 11 11 11 12 12 12
14 13 12 11 9 6 6 5 4 7 11 13 13 13 16 20 21 20 20 20 21 21 20 19 18 18 18 17 16 15 15 14 13 12 12 12 12 12 13 13 12 11 11 10 10 10 9 8 7 7 7 8 9 9 9 10 10 9 8 8 7 7 7 8 9 10 11 10 10 11 11 11 11 10 10 9 10 11 11 11 11 12 12 12 12
13 13 10 7 6 5 5 6 6 7 10 14 16 15 16 20 23 23 24 25 24 23 21 20 20 20 20 19 18 17 16 15 14 13 12 12 12 12 12 12 12 11 11 11 10 10 10 9 7 6 6 6 8 9 9 10 10 9 9 9 8 8 9 10 10 11 12 12 12 12 10 10 10 10 10 10 10 11 12 13 13 12 12 12 13
12 13 11 7 6 5 5 7 9 10 11 15 19 19 18 21 24 26 28 27 25 23 22 22 22 22 22 21 19 18 18 17 16 14 13 12 11 11 11 11 11 11 11 11 11 10 10 10 9 8 7 7 7 8 8 9 9 9 9 9 8 9 10 10 11 12 13 13 13 12 10 10 10 11 11 11 11 11 12 13 13 12 13 13 14
10 11 11 9 7 6 6 7 10 13 14 15 18 20 20 21 24 27 29 27 24 23 23 24 24 24 23 21 20 19 19 18 17 15 14 13 12 11 11 10 10 10 11 11 11 10 10 11 10 10 9 9 9 9 9 8 8 8 8 8 9 10 10 11 11 13 14 14 14 12 11 12 11 10 11 12 12 12 13 13 14 14 15 16 16
9 9 10 9 8 7 7 8 10 12 14 16 17 19 19 20 23 27 27 26 25 25 25 26 25 23 22 21 21 20 19 18 17 16 15 13 13 12 12 11 11 11 12 12 11 11 11 11 11 11 11 11 11 11 11 11 10 9 9 9 10 10 11 11 12 13 14 14 14 13 13 14 14 12 12 14 14 15 15 15 15 16 17 17 18
8 8 9 8 8 7 6 6 6 6 8 13 18 19 19 20 23 25 27 27 27 28 27 26 24 23 22 22 22 21 19 19 18 16 15 13 13 13 12 12 12 13 14 14 13 12 12 12 12 11 11 11 12 12 12 13 13 13 12 11 11 12 12 13 13 14 14 15 15 14 14 15 16 15 15 15 16 17 17 17 17 18 19 19 20
8 8 9 8 8 7 7 8 8 6 6 11 17 20 20 21 23 25 28 29 29 29 28 26 24 24 23 23 23 21 20 20 19 16 15 14 14 13 13 13 14 14 15 15 15 14 14 13 13 13 13 13 13 13 14 14 15 15 14 14 14 14 14 14 14 15 15 16 16 16 16 16 17 16 16 16 17 18 18 18 19 19 20 20 21
Wind_Direction
270 271 272 279 288 294 299 305 308 309 311 309 307 309 307 300 298 300 302 304 306 309 309 308 309 312 315 317 316 316 317 319 321 320 319 317 316 315 313 313 315 321 328 331 327 323 322 322 324 325 324 323 323 325 326 327 329 330 326 324 326 329 331 333 332 329 323 310 294 276 256 247 240 235 233 229 226 217 207 200 192 180 152 147 97
268 266 268 275 285 291 297 301 303 306 308 306 303 303 304 300 298 298 300 302 305 307 306 305 306 309 312 314 315 315 316 318 320 319 318 317 316 315 312 311 315 322 329 330 325 320 320 322 326 326 322 321 322 323 325 325 327 325 322 322 326 330 333 334 332 327 322 309 291 274 254 245 239 231 228 227 227 220 210 204 200 192 186 199 352
268 267 271 279 285 289 294 297 298 303 306 304 299 295 296 296 296 297 299 302 303 303 301 300 302 305 309 311 313 314 316 318 320 318 317 317 315 313 311 311 315 323 329 328 320 317 319 325 329 326 321 320 321 321 322 323 321 318 319 323 326 329 331 329 328 325 319 307 284 269 253 245 241 233 228 227 227 224 216 210 206 204 210 198 66
271 275 278 282 285 289 291 292 295 300 304 305 298 292 291 291 293 296 298 300 300 299 297 297 299 303 306 308 311 314 316 317 319 318 316 314 313 312 311 312 316 323 329 325 316 315 320 328 332 325 321 320 319 318 318 318 314 314 318 322 323 325 325 324 324 323 313 298 276 263 252 247 244 235 229 226 228 226 221 216 211 213 228 237 44
273 277 279 281 284 286 288 290 293 297 302 305 302 294 291 291 291 295 297 298 298 295 294 296 299 301 304 306 310 313 314 315 318 317 314 311 311 312 310 310 316 322 326 320 312 315 322 331 333 327 322 317 315 313 313 313 309 310 315 318 320 320 321 319 320 318 299 286 269 258 251 248 246 235 229 227 227 225 221 218 214 210 219 259 324
273 275 276 278 281 283 286 289 291 295 300 303 303 297 291 291 291 293 296 297 296 293 293 295 298 300 302 306 309 311 312 314 316 316 313 310 310 311 308 309 313 318 321 314 309 315 326 333 335 329 321 315 310 308 309 308 304 305 311 316 318 316 316 316 316 306 288 276 263 258 252 248 247 236 228 228 227 227 221 216 213 208 205 209 238
269 271 273 275 278 281 284 287 289 292 297 300 301 296 290 290 290 292 295 296 293 290 292 295 297 299 302 305 308 309 309 312 314 313 311 309 309 310 308 307 308 311 312 306 306 318 330 335 336 329 319 313 307 304 305 302 300 302 309 316 316 314 312 311 308 296 286 276 260 256 257 253 249 238 228 227 227 229 225 220 217 214 211 210 214
266 269 272 275 277 280 283 286 288 291 295 297 297 293 289 288 288 290 294 293 290 289 291 293 296 298 301 303 305 306 308 310 310 310 309 308 308 310 307 303 302 304 304 300 306 322 333 334 333 327 318 311 305 301 300 297 297 301 310 315 313 311 307 305 300 288 282 277 263 254 260 261 254 240 230 227 224 226 227 223 223 222 222 222 225
265 267 270 273 276 279 282 286 289 292 294 293 292 289 285 284 285 289 291 289 288 289 290 291 294 296 298 301 303 304 305 307 308 307 307 306 308 308 303 299 298 297 298 298 305 321 331 329 328 324 317 311 303 298 295 295 297 302 308 311 310 306 301 297 291 279 275 278 269 260 261 264 259 246 235 229 227 225 225 224 224 227 228 229 233
265 267 269 272 274 278 281 286 289 291 291 288 287 284 282 282 284 287 288 287 287 287 287 289 291 293 296 299 301 302 303 304 305 305 304 305 306 304 298 297 297 294 295 296 298 311 320 320 321 320 316 309 301 295 293 294 298 302 306 306 305 302 297 292 285 268 261 273 272 274 270 262 261 255 243 233 231 228 224 224 225 227 230 231 233
265 267 269 270 273 277 281 286 289 287 285 284 283 280 279 280 283 284 284 284 285 284 285 285 287 290 293 297 299 300 301 302 303 302 303 303 302 299 296 295 294 291 291 289 291 301 310 307 307 313 311 304 297 293 291 293 298 301 302 302 300 297 294 289 282 264 253 265 271 279 276 265 266 265 256 243 235 231 226 225 226 228 231 231 233
265 267 269 271 274 278 282 286 285 280 280 281 279 277 278 280 281 281 281 281 281 281 281 282 285 288 292 295 296 298 299 300 301 300 300 300 298 295 293 292 289 286 286 286 288 291 299 302 300 302 299 292 290 289 289 291 295 298 297 297 296 294 292 286 278 268 257 264 273 275 273 268 271 273 269 262 248 238 231 228 228 230 232 234 235
265 269 272 275 278 280 281 282 278 276 277 277 275 276 277 278 278 277 277 278 278 278 278 280 283 287 289 291 292 295 297 298 298 297 297 296 294 292 290 289 285 281 279 282 288 285 288 295 294 287 279 275 277 283 286 288 291 293 292 291 292 292 289 283 273 267 261 268 276 276 274 273 276 277 273 270 262 252 242 234 231 232 233 236 238
265 269 273 277 278 278 278 275 273 274 274 273 273 274 274 274 274 274 275 276 277 277 277 280 283 285 286 288 290 292 294 295 295 294 294 292 290 290 289 289 284 278 273 274 284 283 282 287 285 274 264 264 266 277 284 286 288 288 288 286 287 287 285 279 269 264 257 263 274 273 269 272 278 276 270 268 265 260 253 244 238 236 237 239 241
263 267 272 274 275 273 271 271 272 272 270 270 270 270 271 271 272 274 276 276 276 276 277 279 282 284 286 287 288 289 290 291 291 291 290 288 289 291 288 285 281 275 269 269 275 277 280 286 287 276 260 256 260 268 277 282 284 285 285 283 284 283 281 276 267 261 253 246 259 265 261 263 269 268 263 261 260 258 255 250 244 240 239 239 241
262 267 269 269 268 267 267 268 269 268 267 267 268 269 270 271 273 275 276 276 276 277 277 279 282 284 286 286 284 284 286 287 288 288 287 286 288 288 283 279 273 267 266 269 274 278 283 292 299 294 276 258 253 257 266 275 279 282 282 280 280 280 277 272 264 258 251 239 243 256 258 255 258 260 255 252 253 253 251 250 248 245 242 241 241
265 266 265 263 261 262 262 263 264 264 265 267 268 269 271 274 276 277 278 278 279 279 280 282 284 285 284 282 281 283 285 287 287 287 287 286 286 282 275 273 268 263 265 270 278 285 291 294 301 300 289 266 251 249 256 266 274 278 278 277 277 276 273 269 263 255 247 240 239 249 255 254 253 254 250 246 247 248 247 245 247 248 247 246 245
268 264 259 255 254 254 254 256 259 262 265 267 269 272 275 277 277 277 278 280 280 281 283 284 285 285 284 283 284 286 287 286 284 283 284 282 282 276 269 269 267 265 266 271 282 293 300 298 293 290 284 264 249 244 249 261 270 273 274 274 273 272 270 268 262 254 246 241 240 246 251 252 252 252 250 245 242 243 243 241 241 244 247 248 248
266 260 251 247 246 246 249 253 257 261 265 268 271 275 276 275 274 276 279 281 283 284 285 285 286 287 287 286 286 286 286 285 281 279 279 277 278 272 262 262 265 268 268 272 284 297 301 300 297 294 285 259 243 243 250 261 267 269 270 270 271 268 266 264 260 254 247 241 240 244 247 250 252 252 250 247 243 241 239 239 237 238 242 244 246
263 254 244 241 242 243 247 252 257 262 266 271 274 275 274 273 274 278 282 285 287 287 287 288 290 291 289 286 285 284 282 281 277 275 275 272 273 270 262 260 265 269 271 276 287 294 292 291 296 298 290 262 240 246 255 261 264 266 268 267 267 266 262 258 256 253 249 243 240 239 240 245 250 252 250 249 247 245 242 241 238 236 238 240 242
256 246 239 239 241 245 249 253 257 262 269 274 275 274 274 276 280 284 288 290 290 290 291 292 291 290 288 285 284 280 277 276 270 268 269 267 268 269 266 264 265 269 274 278 284 285 280 283 290 290 285 265 245 250 255 256 258 263 265 265 263 262 260 256 252 250 247 241 238 237 236 238 243 248 249 248 247 246 245 244 243 241 238 239 240
250 241 238 239 242 247 251 255 259 266 272 276 277 277 279 281 284 288 291 293 293 292 292 292 291 289 288 285 282 277 274 272 267 265 266 266 269 272 270 267 264 265 270 275 278 276 272 279 281 274 270 265 255 253 252 251 254 259 261 262 260 258 258 257 252 246 241 238 236 236 235 234 236 240 244 246 246 246 244 245 246 246 244 242 241
246 242 241 241 245 250 253 257 263 270 276 279 281 281 283 285 287 289 292 293 293 292 292 290 288 287 285 283 281 277 273 271 269 270 271 273 276 277 273 269 266 263 262 268 275 270 266 270 267 261 263 263 260 254 249 249 253 255 256 256 256 255 254 254 253 246 238 235 235 236 234 234 233 235 239 243 246 246 245 244 245 248 249 248 247
245 244 244 244 248 252 254 258 266 273 279 282 283 284 286 289 290 289 289 289 289 289 288 286 283 282 282 281 279 277 275 274 274 276 277 279 280 279 276 272 268 264 259 265 268 261 259 263 260 258 261 259 257 251 246 246 248 252 253 253 252 250 249 249 250 248 241 235 235 236 236 235 233 234 237 241 243 245 247 247 246 248 250 252 252
245 244 243 246 250 252 255 259 266 273 279 282 284 285 287 290 290 288 287 286 287 286 285 281 280 281 281 279 277 277 278 277 276 275 276 278 279 279 278 274 269 264 261 263 261 256 256 259 260 259 259 257 256 253 250 245 245 249 250 251 252 250 247 245 245 246 244 238 234 236 237 237 236 235 237 239 241 242 245 246 247 248 249 250 251
240 241 241 245 248 251 254 259 266 272 277 280 282 283 284 286 288 287 286 287 288 287 284 280 279 279 278 277 275 275 275 274 273 273 275 278 279 279 278 276 271 262 258 257 254 254 255 257 261 262 261 261 261 262 262 256 251 251 251 251 252 252 250 248 245 244 243 240 235 234 236 238 238 237 238 239 240 241 243 244 245 247 248 249 250
238 239 240 243 247 250 255 260 266 271 275 278 278 279 281 283 284 284 284 285 288 288 283 278 275 275 275 273 271 271 270 270 271 274 277 279 279 278 277 274 267 257 254 255 256 258 261 263 265 267 267 268 268 269 270 268 259 253 253 252 251 251 251 251 249 246 245 242 237 235 235 236 237 238 239 240 241 243 243 243 244 245 248 250 250
236 237 238 241 247 250 255 260 265 270 274 276 276 279 281 282 281 281 281 284 287 284 277 273 271 272 270 266 266 266 266 268 272 275 276 276 277 275 271 265 257 255 259 264 268 270 270 271 271 271 270 271 272 275 278 277 267 256 253 253 251 249 249 250 251 250 248 246 242 238 237 236 236 236 238 240 241 243 244 245 246 247 248 250 252
233 233 236 239 245 248 253 258 264 271 274 276 279 282 283 282 280 279 280 283 282 276 269 268 268 266 264 261 261 262 265 270 272 272 270 269 270 266 261 259 258 262 266 268 271 271 271 271 272 272 272 273 276 281 284 281 273 264 257 255 253 250 248 247 248 248 249 248 245 242 240 238 236 236 236 238 240 243 245 247 248 249 249 251 252
236 232 235 237 243 246 252 260 266 273 275 279 284 289 290 285 282 280 279 277 271 266 263 262 261 261 260 258 259 263 265 267 266 264 264 265 264 260 258 260 261 261 262 263 265 267 268 271 272 275 276 278 282 285 285 282 278 271 263 259 256 253 250 247 245 246 247 248 247 245 243 241 239 237 237 238 240 241 244 246 248 249 250 252 253
239 234 235 238 244 248 254 260 268 278 282 284 289 295 296 289 283 278 272 267 260 257 256 257 258 258 258 260 262 262 261 260 264 266 265 265 262 260 261 261 259 256 255 256 260 264 269 273 276 278 280 283 287 287 285 282 279 272 265 263 261 257 253 249 247 246 246 246 247 248 247 246 245 243 242 241 241 241 243 245 247 249 251 252 253
243 237 237 240 244 248 253 260 271 285 290 290 293 297 296 288 280 271 264 259 255 252 252 254 256 258 259 260 258 255 259 264 266 265 262 260 259 261 263 262 260 258 257 255 259 265 270 272 274 277 280 284 287 288 288 286 281 274 268 265 263 262 259 253 249 246 245 244 245 248 249 250 250 249 248 247 246 246 246 247 249 251 253 254 254
243 237 234 237 241 246 250 257 273 289 293 293 296 295 289 280 271 264 258 253 251 250 250 253 255 257 256 251 250 254 259 258 254 253 254 255 256 258 259 259 260 258 254 249 251 259 263 264 267 272 278 282 285 287 288 288 286 280 274 269 267 267 262 252 245 243 244 244 244 245 246 249 252 252 251 251 251 251 251 251 252 253 254 255 255
237 232 230 234 239 244 249 253 272 288 291 291 292 288 277 268 261 256 252 249 248 247 249 252 253 250 247 245 248 249 243 238 243 249 252 252 252 252 252 253 254 253 245 239 240 246 252 255 260 271 281 285 285 283 284 287 287 282 277 273 270 268 262 249 240 241 244 246 246 244 241 244 249 251 250 252 253 254 254 254 254 254 254 254 255
231 227 226 232 238 242 245 250 267 281 283 284 282 273 262 254 251 248 247 246 244 245 247 248 246 242 242 241 236 228 227 237 245 246 246 247 247 247 247 246 247 248 243 235 235 240 247 254 263 278 287 286 282 281 283 285 283 280 277 273 268 265 260 249 242 245 248 250 250 245 240 241 246 248 249 251 254 255 255 254 254 254 254 253 253
219 217 220 229 236 238 240 246 259 268 270 272 268 257 248 243 242 242 241 240 239 241 243 241 240 236 232 225 218 220 232 242 242 241 243 244 247 248 245 244 243 245 244 237 241 249 252 258 268 277 282 280 279 278 281 285 286 284 280 273 265 261 256 247 243 248 250 249 248 246 244 245 246 246 249 252 254 255 255 255 254 255 255 254 254
218 221 231 236 237 235 236 244 252 258 259 255 248 241 238 238 239 240 238 236 235 233 234 233 229 224 218 214 215 224 234 236 237 239 241 243 247 246 244 248 244 240 240 243 253 260 263 265 264 266 271 277 278 277 281 286 289 291 289 276 260 255 251 241 238 244 246 243 242 243 246 247 246 246 249 253 255 255 255 255 255 256 257 257 257
230 234 242 241 236 234 239 247 250 253 250 236 232 231 232 236 237 238 235 230 226 224 224 222 218 215 214 214 217 223 228 231 234 239 243 246 248 248 249 253 250 243 240 246 256 263 268 267 261 260 262 268 273 279 283 282 281 293 301 284 254 244 243 237 235 238 240 237 239 244 247 248 247 247 249 252 254 255 254 255 255 257 259 259 260
234 238 244 245 243 244 252 259 255 252 245 229 225 227 229 233 235 234 230 223 221 220 219 214 212 215 215 214 217 221 225 230 236 242 246 249 252 256 258 257 257 255 249 249 255 263 270 270 265 263 257 253 260 271 275 270 272 287 299 290 257 240 239 237 233 232 234 237 242 245 244 243 245 246 249 253 255 257 257 257 258 258 260 260 260
238 239 243 252 255 257 263 262 254 251 245 227 222 225 226 231 234 233 227 222 219 216 212 209 210 213 214 215 217 218 223 229 236 242 247 248 250 255 259 260 263 265 261 258 260 265 269 267 265 266 259 251 251 258 259 259 269 280 293 293 260 235 233 229 221 223 232 239 241 241 238 239 245 248 250 253 254 256 259 261 262 261 261 261 261
247 227 234 266 283 284 276 253 242 247 241 226 221 225 225 229 233 231 226 221 219 214 208 206 208 209 211 213 213 214 219 225 231 236 241 244 246 251 257 260 263 266 266 266 266 264 264 264 264 264 260 255 254 256 253 252 262 271 283 293 260 230 221 209 209 228 237 237 235 236 238 240 246 251 251 253 254 256 259 262 262 262 262 261 263
278 286 301 317 335 341 323 255 232 239 236 228 226 225 225 228 232 230 225 223 220 211 204 204 205 205 207 208 209 213 219 224 229 233 236 239 242 247 251 254 258 261 263 264 265 265 265 266 267 268 262 257 260 262 257 251 251 258 264 268 256 234 218 205 216 236 238 236 235 237 243 242 248 258 255 252 255 258 260 260 260 262 262 261 262
289 295 300 309 326 339 339 299 234 232 233 233 231 226 225 226 228 226 223 223 217 207 204 208 208 204 204 206 210 214 221 226 229 233 235 238 242 246 248 249 250 253 255 259 262 266 270 273 275 273 268 261 262 263 261 253 247 249 253 250 246 242 236 229 234 238 232 230 233 237 243 242 245 254 255 250 254 259 258 256 258 260 261 261 262
303 307 308 314 325 325 324 324 242 228 236 239 233 227 224 223 225 227 224 220 215 211 213 217 216 212 208 208 210 213 217 223 227 232 238 242 246 249 251 251 251 251 252 255 259 264 269 275 277 274 268 263 263 263 263 260 256 253 251 248 243 244 248 248 244 241 235 230 232 236 239 241 244 251 257 254 253 258 259 258 258 256 256 259 260
300 312 315 316 321 315 300 298 261 233 236 237 235 231 226 223 225 228 227 222 218 218 220 221 221 221 216 210 210 211 214 218 222 229 235 241 247 251 253 255 255 254 252 251 252 256 260 266 271 270 268 264 263 265 265 265 267 264 259 255 250 246 248 251 250 249 246 239 236 240 241 244 250 255 259 256 255 260 262 259 259 256 256 258 259
291 299 308 308 303 297 279 276 272 253 239 238 239 236 229 225 224 224 224 224 222 221 222 223 225 225 221 216 213 213 215 216 217 222 227 233 240 246 250 253 253 252 249 248 247 248 252 255 257 259 261 263 266 268 269 269 270 270 267 264 260 252 248 252 255 254 251 245 241 246 249 251 257 262 263 260 258 260 262 260 260 258 258 259 261
280 282 289 289 279 277 266 263 266 261 250 241 239 235 230 227 224 222 223 225 225 224 225 225 226 229 228 224 220 219 219 217 215 216 220 224 229 234 239 242 245 246 245 245 244 244 247 250 251 250 249 252 258 265 268 269 270 271 271 269 264 257 252 252 255 255 255 255 254 257 260 257 258 260 264 266 261 258 259 259 259 260 263 265 266
269 269 275 277 273 276 270 263 262 260 254 243 234 231 230 228 225 224 225 226 227 227 228 228 228 230 231 229 226 224 224 222 218 216 216 217 218 220 225 231 235 238 240 241 241 241 244 248 251 253 251 250 252 255 259 263 268 271 272 271 266 263 260 256 253 254 258 262 265 266 263 261 260 258 261 264 261 259 259 258 259 263 265 266 266
266 262 265 265 267 275 279 276 267 255 246 238 226 220 222 225 227 226 225 224 225 226 228 229 230 231 231 229 226 224 226 226 222 218 215 211 210 212 217 223 229 234 238 240 241 242 244 247 251 254 256 255 255 254 255 257 261 265 268 272 272 269 269 266 262 261 262 265 267 266 262 261 262 262 262 261 259 259 259 259 260 262 264 265 265
256 260 262 260 260 269 273 266 254 242 235 228 219 215 218 224 226 226 224 223 224 225 228 230 231 231 229 226 226 228 230 230 226 220 215 209 209 212 217 224 230 234 239 243 244 244 246 249 251 254 257 259 260 261 260 258 258 259 260 265 270 271 271 270 269 267 266 267 268 267 263 259 260 263 264 263 262 262 262 263 263 263 264 264 265
239 248 252 250 249 253 251 236 231 244 245 226 220 220 222 223 224 224 224 225 227 229 232 233 232 231 229 228 231 234 234 231 226 220 215 212 212 215 220 227 233 238 244 248 251 251 251 250 250 251 254 258 261 264 265 264 261 259 259 260 263 266 266 265 265 265 266 267 267 266 264 262 262 265 266 266 267 268 268 269 270 269 267 266 266
Height
5856 5856 5857 5857 5858 5858 5858 5858 5857 5857 5856 5856 5855 5855 5855 5854 5855 5855 5854 5854 5854 5853 5853 5853 5853 5852 5852 5851 5851 5850 5849 5849 5848 5847 5846 5845 5845 5844 5843 5843 5843 5844 5844 5844 5844 5843 5843 5843 5842 5842 5842 5841 5841 5840 5840 5839 5839 5838 5838 5838 5837 5837 5837 5837 5837 5837 5837 5837 5837 5837 5837 5837 5838 5838 5838 5838 5839 5839 5840 5840 5840 5840 5841 5841 5840
5855 5855 5855 5856 5857 5857 5857 5857 5857 5856 5855 5855 5854 5854 5854 5854 5854 5854 5854 5853 5853 5852 5852 5852 5852 5852 5851 5851 5850 5849 5848 5847 5847 5846 5845 5845 5844 5843 5843 5843 5843 5843 5844 5844 5843 5843 5843 5842 5842 5842 5842 5841 5841 5840 5840 5839 5839 5838 5838 5837 5837 5837 5837 5837 5837 5837 5837 5837 5837 5837 5837 5837 5837 5838 5838 5838 5839 5839 5840 5840 5840 5840 5841 5840 5840
5853 5853 5854 5854 5855 5855 5855 5855 5855 5855 5855 5854 5854 5854 5853 5853 5853 5853 5852 5852 5852 5851 5851 5851 5851 5851 5850 5850 5849 5848 5847 5846 5846 5845 5845 5844 5843 5843 5842 5842 5843 5843 5844 5843 5843 5843 5843 5842 5842 5842 5841 5841 5841 5840 5840 5839 5839 5838 5838 5837 5837 5837 5837 5837 5837 5837 5837 5837 5837 5837 5837 5837 5837 5837 5838 5838 5838 5839 5839 5840 5840 5840 5840 5840 5841
5851 5852 5852 5853 5853 5853 5854 5854 5853 5853 5853 5853 5853 5853 5853 5853 5852 5852 5851 5851 5850 5850 5850 5850 5850 5849 5849 5849 5848 5847 5846 5846 5845 5844 5844 5843 5843 5842 5842 5842 5842 5843 5843 5843 5842 5842 5842 5842 5842 5842 5841 5841 5840 5840 5839 5839 5838 5838 5838 5837 5837 5837 5837 5837 5837 5837 5837 5837 5837 5837 5837 5837 5837 5837 5837 5838 5838 5839 5839 5840 5840 5840 5840 5841 5841
5850 5850 5851 5851 5851 5851 5851 5852 5851 5851 5851 5851 5851 5851 5851 5851 5851 5851 5850 5850 5849 5849 5849 5848 5848 5848 5847 5847 5847 5846 5845 5845 5844 5844 5843 5842 5842 5842 5842 5841 5842 5842 5843 5842 5842 5842 5842 5842 5842 5842 5841 5841 5840 5840 5839 5839 5838 5838 5838 5837 5837 5837 5837 5837 5837 5837 5837 5837 5837 5837 5837 5836 5837 5837 5837 5838 5838 5839 5839 5840 5840 5841 5841 5841 5842
5848 5849 5849 5849 5849 5849 5850 5850 5850 5850 5850 5849 5849 5849 5850 5850 5850 5849 5849 5849 5848 5847 5847 5847 5846 5846 5846 5845 5845 5845 5844 5844 5843 5843 5842 5841 5841 5841 5841 5841 5841 5842 5842 5842 5841 5842 5842 5842 5842 5842 5841 5841 5840 5839 5839 5838 5838 5838 5838 5837 5837 5837 5838 5837 5837 5837 5837 5837 5837 5837 5837 5837 5837 5837 5837 5838 5838 5839 5839 5840 5840 5841 5841 5842 5842
5846 5847 5847 5848 5848 5848 5848 5848 5848 5848 5848 5848 5848 5848 5848 5848 5848 5848 5848 5847 5847 5846 5846 5845 5845 5844 5844 5844 5844 5843 5843 5842 5842 5842 5841 5840 5840 5840 5840 5840 5840 5841 5841 5841 5841 5841 5842 5842 5842 5841 5841 5840 5839 5839 5839 5838 5838 5838 5837 5837 5837 5838 5838 5837 5837 5837 5837 5837 5837 5837 5837 5837 5837 5837 5837 5838 5838 5839 5839 5840 5840 5841 5841 5842 5842
5845 5845 5846 5846 5846 5846 5846 5846 5846 5846 5846 5846 5846 5846 5846 5846 5846 5846 5846 5846 5845 5845 5844 5843 5843 5842 5842 5842 5842 5842 5842 5841 5841 5840 5840 5840 5840 5839 5839 5839 5839 5840 5840 5840 5840 5840 5841 5841 5841 5841 5841 5840 5839 5838 5838 5838 5838 5838 5837 5837 5837 5838 5838 5837 5837 5837 5837 5837 5837 5837 5837 5837 5837 5837 5837 5838 5838 5839 5839 5840 5840 5841 5841 5842 5842
5843 5843 5844 5844 5844 5844 5844 5844 5844 5844 5844 5844 5844 5844 5844 5844 5844 5844 5844 5844 5843 5843 5842 5842 5841 5841 5840 5840 5840 5840 5840 5840 5840 5839 5839 5839 5839 5838 5837 5837 5838 5839 5839 5839 5839 5840 5840 5840 5841 5841 5840 5840 5839 5838 5838 5838 5838 5837 5837 5837 5837 5837 5837 5837 5837 5837 5837 5837 5837 5837 5837 5837 5837 5837 5837 5838 5838 5839 5839 5840 5840 5841 5841 5842 5842
5841 5841 5841 5842 5842 5842 5842 5842 5842 5842 5842 5842 5842 5842 5842 5842 5842 5842 5842 5841 5841 5841 5841 5840 5839 5839 5839 5839 5839 5839 5839 5839 5838 5838 5838 5837 5837 5837 5836 5836 5837 5837 5838 5838 5838 5838 5839 5840 5840 5840 5840 5840 5839 5838 5838 5838 5838 5837 5837 5837 5837 5837 5837 5837 5837 5837 5837 5837 5837 5837 5837 5837 5837 5837 5837 5838 5838 5838 5839 5839 5840 5841 5841 5842 5842
5838 5839 5839 5839 5840 5840 5840 5840 5840 5839 5839 5840 5840 5840 5840 5840 5840 5840 5839 5839 5839 5839 5838 5838 5837 5837 5838 5838 5838 5837 5837 5837 5837 5837 5836 5836 5836 5836 5835 5834 5835 5836 5836 5837 5837 5837 5838 5838 5839 5840 5840 5839 5839 5837 5837 5837 5838 5837 5837 5837 5837 5837 5837 5837 5837 5837 5837 5837 5837 5837 5837 5837 5838 5838 5838 5838 5838 5838 5839 5839 5840 5841 5841 5842 5842
5835 5836 5836 5837 5837 5837 5837 5837 5837 5837 5838 5838 5838 5838 5838 5838 5838 5837 5837 5837 5837 5837 5836 5836 5836 5836 5836 5836 5836 5836 5836 5836 5836 5835 5835 5835 5835 5834 5834 5833 5833 5834 5835 5835 5835 5835 5836 5837 5838 5839 5839 5839 5838 5837 5836 5836 5837 5837 5836 5837 5837 5837 5837 5837 5837 5837 5837 5837 5837 5837 5837 5837 5837 5838 5838 5838 5838 5838 5838 5839 5839 5840 5841 5842 5842
5833 5833 5834 5834 5834 5834 5834 5835 5835 5835 5836 5836 5836 5836 5836 5836 5835 5835 5835 5835 5835 5834 5834 5834 5834 5834 5835 5835 5835 5834 5834 5834 5834 5834 5834 5833 5833 5833 5832 5832 5832 5832 5833 5834 5834 5834 5835 5836 5837 5838 5838 5838 5838 5837 5835 5835 5836 5837 5836 5836 5836 5836 5836 5837 5837 5837 5837 5837 5837 5837 5837 5837 5838 5838 5838 5838 5838 5838 5838 5839 5839 5840 5840 5841 5842
5831 5831 5831 5831 5831 5831 5832 5832 5833 5834 5834 5834 5834 5834 5834 5833 5833 5833 5833 5833 5833 5832 5833 5833 5833 5833 5833 5833 5833 5833 5833 5832 5832 5832 5832 5832 5832 5832 5831 5830 5830 5830 5831 5832 5832 5833 5833 5835 5836 5837 5837 5838 5838 5837 5835 5834 5835 5836 5835 5835 5836 5836 5836 5836 5836 5837 5837 5837 5837 5837 5837 5837 5838 5838 5838 5838 5839 5839 5839 5839 5839 5840 5840 5841 5841
5830 5830 5830 5829 5829 5829 5830 5831 5832 5832 5832 5832 5832 5832 5831 5831 5832 5832 5831 5831 5831 5831 5831 5831 5831 5831 5831 5832 5831 5831 5831 5831 5831 5831 5831 5830 5830 5830 5830 5829 5829 5829 5830 5830 5830 5831 5832 5833 5835 5836 5837 5837 5837 5836 5835 5833 5834 5835 5835 5834 5835 5836 5836 5836 5836 5836 5836 5837 5836 5837 5837 5837 5838 5838 5838 5838 5838 5839 5839 5839 5839 5839 5840 5840 5841
5828 5828 5827 5827 5827 5827 5828 5829 5830 5830 5830 5830 5830 5830 5830 5830 5830 5830 5830 5829 5830 5830 5830 5830 5830 5830 5830 5830 5830 5829 5829 5829 5829 5829 5829 5829 5829 5829 5828 5828 5828 5828 5828 5829 5829 5830 5831 5832 5834 5835 5836 5836 5836 5836 5834 5833 5833 5834 5835 5834 5834 5835 5836 5836 5836 5836 5836 5836 5836 5836 5837 5837 5838 5838 5838 5838 5838 5838 5838 5839 5839 5839 5840 5840 5840
5825 5825 5825 5825 5825 5826 5827 5827 5828 5828 5828 5828 5828 5828 5828 5829 5829 5828 5828 5828 5828 5829 5829 5829 5829 5829 5829 5828 5828 5828 5827 5828 5828 5828 5828 5828 5828 5828 5827 5826 5826 5827 5827 5828 5828 5829 5830 5831 5833 5834 5835 5836 5836 5835 5834 5832 5832 5833 5834 5834 5834 5835 5835 5836 5836 5836 5836 5836 5836 5836 5837 5837 5837 5837 5837 5838 5838 5838 5838 5838 5838 5839 5839 5839 5840
5822 5822 5823 5823 5824 5824 5825 5826 5826 5826 5826 5826 5826 5826 5827 5827 5827 5827 5827 5827 5827 5827 5827 5828 5828 5828 5827 5827 5827 5826 5826 5826 5826 5826 5826 5826 5827 5827 5826 5826 5825 5825 5826 5826 5827 5828 5829 5830 5831 5833 5834 5835 5835 5834 5834 5832 5831 5832 5833 5833 5834 5834 5835 5835 5835 5836 5836 5836 5836 5836 5837 5837 5837 5837 5837 5837 5837 5837 5838 5838 5838 5838 5839 5839 5839
5819 5820 5820 5821 5822 5823 5823 5824 5824 5824 5824 5824 5825 5825 5825 5825 5825 5825 5825 5826 5826 5826 5826 5826 5827 5826 5826 5825 5825 5824 5825 5825 5825 5825 5825 5825 5825 5825 5825 5825 5824 5824 5825 5825 5826 5827 5828 5829 5830 5831 5832 5832 5833 5834 5833 5832 5831 5831 5832 5833 5833 5834 5834 5835 5835 5835 5836 5836 5836 5836 5837 5837 5837 5837 5837 5837 5837 5837 5837 5837 5837 5838 5838 5838 5839
5817 5817 5818 5819 5820 5821 5821 5822 5822 5822 5822 5823 5823 5823 5823 5823 5823 5824 5824 5825 5825 5825 5825 5825 5825 5825 5824 5823 5823 5823 5823 5823 5823 5823 5823 5823 5823 5824 5824 5824 5823 5823 5823 5824 5825 5826 5827 5827 5828 5829 5830 5831 5832 5833 5833 5832 5831 5830 5831 5832 5832 5833 5833 5834 5834 5834 5835 5836 5836 5836 5836 5836 5837 5837 5836 5836 5836 5837 5837 5837 5837 5837 5838 5838 5838
5814 5815 5815 5816 5817 5818 5819 5820 5820 5820 5821 5821 5821 5821 5822 5822 5822 5823 5823 5823 5823 5823 5824 5824 5823 5823 5822 5821 5821 5822 5822 5822 5822 5822 5822 5821 5821 5822 5822 5822 5822 5822 5822 5823 5824 5824 5825 5825 5826 5827 5828 5829 5830 5831 5831 5831 5830 5829 5830 5831 5831 5831 5832 5833 5833 5834 5834 5835 5835 5835 5835 5836 5836 5836 5836 5836 5836 5836 5836 5836 5837 5837 5837 5837 5838
5811 5812 5813 5814 5815 5816 5817 5818 5818 5819 5819 5819 5820 5820 5820 5821 5821 5822 5822 5822 5822 5822 5822 5822 5821 5821 5820 5820 5820 5820 5820 5820 5820 5820 5820 5820 5820 5820 5820 5820 5821 5821 5821 5822 5822 5823 5823 5823 5824 5824 5826 5828 5829 5830 5830 5830 5829 5829 5829 5829 5829 5830 5831 5831 5832 5833 5833 5833 5834 5834 5834 5834 5835 5835 5835 5835 5835 5835 5835 5836 5836 5836 5836 5837 5837
5810 5810 5811 5812 5813 5815 5816 5816 5816 5817 5817 5818 5818 5818 5819 5820 5820 5821 5821 5820 5820 5820 5820 5820 5819 5819 5818 5818 5818 5818 5818 5818 5818 5818 5818 5818 5818 5819 5819 5819 5819 5820 5820 5821 5821 5820 5820 5820 5821 5822 5824 5826 5827 5828 5829 5829 5828 5828 5828 5827 5827 5828 5829 5830 5830 5831 5832 5832 5832 5833 5833 5833 5833 5834 5834 5835 5835 5835 5835 5835 5835 5835 5836 5836 5836
5808 5809 5810 5811 5812 5813 5814 5814 5815 5815 5816 5816 5816 5817 5818 5818 5819 5819 5819 5819 5818 5818 5818 5818 5817 5817 5816 5816 5816 5816 5816 5816 5817 5817 5817 5817 5817 5817 5817 5817 5817 5818 5819 5819 5819 5818 5818 5818 5819 5820 5821 5823 5824 5826 5827 5828 5827 5827 5826 5826 5826 5826 5827 5828 5828 5829 5830 5831 5831 5831 5832 5832 5832 5833 5834 5834 5834 5834 5834 5834 5834 5835 5835 5835 5835
5806 5807 5808 5810 5811 5812 5813 5813 5813 5814 5814 5814 5815 5816 5816 5817 5817 5817 5817 5817 5816 5816 5816 5816 5815 5815 5814 5814 5814 5814 5814 5815 5815 5816 5816 5816 5816 5816 5816 5816 5816 5816 5817 5817 5817 5817 5816 5816 5817 5818 5819 5820 5821 5823 5825 5826 5826 5825 5825 5825 5825 5825 5825 5826 5827 5827 5828 5829 5830 5830 5830 5831 5831 5832 5833 5833 5833 5833 5833 5833 5834 5834 5834 5834 5834
5805 5806 5807 5808 5810 5811 5811 5811 5812 5812 5812 5813 5813 5814 5814 5815 5815 5815 5815 5815 5815 5815 5814 5814 5813 5813 5812 5812 5812 5812 5813 5813 5814 5814 5814 5814 5814 5814 5814 5814 5814 5815 5815 5815 5816 5816 5815 5815 5815 5816 5817 5818 5819 5821 5822 5824 5824 5823 5823 5823 5824 5824 5824 5824 5825 5826 5827 5827 5828 5828 5829 5829 5830 5830 5831 5832 5832 5832 5832 5832 5833 5833 5833 5833 5833
5803 5804 5805 5806 5808 5809 5809 5810 5810 5811 5811 5811 5811 5812 5812 5813 5813 5813 5813 5813 5813 5813 5813 5812 5812 5811 5811 5811 5811 5811 5811 5812 5812 5812 5813 5813 5813 5813 5813 5813 5813 5814 5814 5814 5815 5815 5815 5815 5815 5815 5816 5816 5817 5819 5820 5821 5822 5821 5821 5822 5822 5822 5822 5823 5824 5825 5825 5826 5826 5827 5827 5828 5828 5829 5829 5830 5831 5831 5831 5832 5832 5832 5832 5832 5832
5801 5802 5803 5805 5806 5807 5807 5808 5808 5809 5809 5809 5809 5810 5810 5811 5811 5811 5811 5811 5811 5811 5811 5810 5810 5810 5810 5810 5810 5810 5810 5810 5811 5811 5811 5812 5812 5812 5812 5812 5813 5813 5814 5814 5814 5814 5814 5814 5814 5814 5814 5815 5815 5817 5818 5819 5820 5819 5819 5820 5820 5820 5821 5822 5822 5823 5823 5824 5824 5825 5825 5826 5826 5827 5827 5828 5829 5830 5830 5831 5831 5831 5831 5832 5832
5799 5800 5801 5803 5804 5805 5805 5805 5806 5806 5806 5807 5807 5808 5808 5809 5809 5809 5809 5809 5809 5809 5809 5808 5808 5808 5808 5808 5808 5808 5809 5809 5810 5810 5810 5810 5810 5811 5811 5812 5812 5812 5813 5814 5814 5813 5813 5813 5812 5812 5813 5814 5814 5815 5816 5817 5817 5818 5817 5818 5818 5819 5819 5820 5821 5821 5822 5822 5823 5823 5824 5824 5824 5825 5825 5826 5827 5828 5829 5830 5830 5830 5831 5831 5831
5797 5798 5799 5801 5802 5802 5802 5803 5803 5804 5804 5805 5806 5806 5806 5807 5807 5807 5807 5807 5807 5807 5807 5807 5807 5807 5807 5807 5807 5807 5808 5808 5809 5809 5809 5809 5809 5810 5810 5810 5811 5812 5812 5812 5813 5812 5812 5811 5811 5811 5812 5812 5814 5814 5815 5815 5815 5816 5816 5815 5816 5817 5817 5818 5819 5819 5819 5820 5820 5821 5821 5822 5822 5823 5824 5824 5825 5826 5827 5828 5829 5829 5829 5830 5830
5796 5796 5798 5799 5799 5799 5800 5800 5801 5802 5803 5803 5804 5805 5805 5805 5805 5805 5805 5805 5805 5805 5805 5805 5805 5805 5805 5805 5806 5806 5807 5807 5808 5808 5808 5808 5808 5809 5809 5809 5810 5810 5811 5811 5811 5811 5811 5810 5810 5810 5810 5811 5813 5813 5813 5813 5813 5813 5813 5814 5814 5814 5815 5816 5817 5817 5817 5818 5818 5819 5819 5820 5820 5821 5822 5822 5823 5824 5825 5826 5827 5828 5828 5828 5829
5794 5794 5795 5796 5796 5796 5797 5798 5799 5801 5801 5802 5802 5803 5803 5803 5803 5803 5803 5803 5803 5803 5803 5803 5804 5804 5804 5805 5805 5806 5806 5806 5807 5807 5807 5808 5808 5808 5808 5809 5809 5809 5810 5810 5811 5810 5810 5810 5809 5809 5809 5810 5811 5812 5811 5811 5811 5811 5811 5812 5812 5812 5813 5814 5815 5815 5815 5816 5817 5817 5818 5818 5818 5819 5820 5820 5821 5823 5824 5824 5825 5826 5826 5827 5827
5792 5792 5792 5793 5793 5794 5795 5797 5798 5799 5799 5799 5800 5801 5801 5801 5801 5801 5801 5802 5802 5801 5801 5802 5802 5803 5803 5804 5804 5805 5805 5806 5806 5806 5807 5807 5807 5807 5807 5808 5808 5808 5809 5809 5809 5809 5809 5809 5809 5808 5809 5809 5810 5810 5810 5809 5809 5809 5810 5810 5810 5811 5812 5812 5813 5813 5813 5814 5815 5816 5816 5816 5817 5817 5818 5819 5820 5821 5822 5823 5823 5824 5824 5825 5825
5789 5789 5789 5789 5790 5792 5793 5794 5796 5797 5797 5797 5798 5798 5799 5799 5799 5800 5800 5800 5800 5800 5800 5800 5801 5802 5803 5803 5804 5804 5805 5805 5806 5806 5806 5806 5806 5806 5806 5807 5807 5807 5808 5808 5808 5808 5808 5808 5808 5808 5808 5808 5808 5808 5808 5808 5808 5808 5808 5808 5809 5810 5810 5810 5810 5811 5812 5813 5813 5813 5814 5815 5815 5816 5816 5817 5818 5819 5820 5820 5821 5822 5822 5823 5823
5783 5782 5783 5785 5787 5789 5790 5792 5793 5794 5795 5795 5796 5796 5796 5797 5797 5798 5798 5798 5798 5798 5799 5800 5800 5801 5802 5802 5803 5804 5804 5805 5805 5805 5805 5805 5805 5805 5805 5806 5806 5806 5807 5807 5807 5807 5807 5807 5807 5807 5807 5807 5806 5807 5807 5807 5807 5806 5806 5807 5807 5808 5808 5808 5809 5810 5811 5811 5811 5812 5812 5813 5814 5814 5815 5816 5816 5817 5817 5818 5819 5819 5820 5820 5820
5780 5778 5778 5780 5783 5785 5787 5789 5790 5791 5792 5793 5794 5794 5794 5795 5795 5796 5796 5796 5797 5797 5798 5799 5799 5800 5801 5801 5802 5803 5804 5804 5804 5804 5804 5805 5805 5805 5804 5805 5805 5806 5806 5807 5806 5806 5806 5806 5806 5806 5806 5806 5806 5806 5806 5806 5806 5805 5805 5805 5806 5806 5806 5807 5809 5809 5810 5810 5810 5810 5811 5812 5812 5813 5814 5814 5815 5815 5815 5816 5817 5817 5818 5818 5818
5780 5780 5778 5779 5781 5783 5785 5787 5788 5789 5790 5791 5792 5792 5792 5793 5793 5794 5795 5795 5795 5796 5797 5798 5798 5799 5800 5801 5802 5802 5803 5803 5803 5803 5804 5804 5804 5804 5803 5803 5804 5805 5806 5806 5806 5805 5805 5805 5805 5805 5806 5806 5805 5805 5805 5805 5805 5804 5804 5804 5804 5804 5805 5807 5808 5808 5808 5808 5809 5809 5810 5810 5811 5812 5813 5813 5813 5813 5814 5814 5815 5815 5816 5816 5816
5778 5779 5779 5780 5781 5783 5785 5786 5787 5788 5789 5789 5790 5790 5791 5791 5791 5792 5793 5794 5794 5795 5796 5797 5797 5798 5798 5800 5800 5801 5802 5802 5802 5803 5803 5803 5803 5802 5802 5802 5802 5804 5805 5805 5805 5804 5804 5805 5805 5805 5805 5805 5805 5805 5805 5805 5804 5803 5803 5803 5803 5804 5805 5806 5806 5806 5807 5807 5808 5808 5809 5810 5811 5811 5811 5811 5811 5812 5812 5813 5813 5814 5814 5814 5815
5775 5777 5778 5780 5781 5782 5783 5785 5786 5786 5787 5788 5788 5788 5789 5789 5790 5791 5792 5792 5793 5794 5795 5795 5796 5796 5797 5798 5799 5800 5800 5801 5801 5802 5802 5802 5802 5802 5802 5801 5801 5803 5804 5804 5804 5804 5804 5804 5805 5805 5805 5805 5805 5804 5804 5804 5804 5803 5803 5803 5803 5804 5805 5805 5805 5805 5806 5807 5807 5807 5808 5809 5809 5810 5810 5810 5810 5810 5811 5811 5812 5812 5812 5812 5813
5774 5775 5776 5778 5779 5780 5780 5781 5783 5784 5785 5786 5786 5787 5787 5788 5789 5790 5790 5791 5792 5793 5793 5794 5794 5795 5796 5797 5798 5798 5799 5800 5800 5801 5801 5801 5801 5801 5801 5801 5801 5802 5803 5803 5803 5803 5804 5804 5804 5804 5805 5805 5804 5804 5804 5804 5803 5803 5803 5802 5802 5803 5804 5804 5804 5804 5805 5806 5806 5806 5807 5807 5808 5808 5808 5809 5809 5809 5810 5810 5811 5811 5811 5811 5811
5773 5773 5775 5776 5777 5778 5778 5778 5780 5782 5783 5784 5784 5785 5786 5787 5788 5789 5790 5791 5791 5791 5792 5793 5793 5794 5795 5796 5796 5797 5798 5798 5799 5799 5800 5800 5800 5800 5800 5800 5800 5801 5802 5802 5803 5803 5803 5804 5804 5804 5804 5804 5804 5804 5804 5803 5803 5803 5802 5802 5802 5803 5803 5804 5804 5804 5804 5805 5805 5805 5806 5807 5807 5807 5807 5808 5808 5808 5809 5809 5809 5809 5809 5809 5810
5772 5772 5773 5775 5776 5776 5776 5776 5777 5779 5781 5782 5783 5784 5785 5786 5787 5788 5789 5790 5790 5790 5791 5791 5792 5793 5794 5794 5795 5796 5796 5797 5797 5798 5798 5798 5799 5798 5798 5799 5799 5800 5801 5801 5802 5802 5803 5803 5803 5803 5803 5804 5803 5803 5803 5803 5803 5802 5802 5802 5802 5802 5803 5804 5804 5803 5804 5805 5804 5804 5805 5806 5806 5806 5806 5807 5807 5807 5808 5808 5808 5808 5808 5808 5808
5771 5771 5772 5774 5775 5776 5776 5776 5776 5778 5780 5781 5782 5783 5784 5785 5786 5787 5788 5789 5789 5789 5790 5790 5791 5791 5792 5792 5793 5794 5795 5796 5796 5797 5797 5797 5797 5797 5797 5797 5798 5799 5800 5800 5801 5802 5802 5802 5803 5803 5803 5803 5803 5803 5803 5803 5802 5802 5802 5802 5802 5802 5803 5804 5804 5803 5804 5804 5803 5803 5804 5805 5805 5805 5805 5806 5806 5807 5807 5806 5806 5807 5806 5806 5807
5771 5771 5772 5773 5774 5775 5775 5775 5775 5776 5778 5779 5781 5782 5783 5784 5785 5786 5787 5787 5788 5788 5789 5789 5789 5790 5790 5790 5791 5792 5793 5794 5795 5796 5796 5796 5796 5796 5796 5797 5797 5798 5798 5799 5800 5800 5801 5801 5802 5802 5802 5803 5802 5802 5803 5802 5802 5802 5802 5802 5802 5803 5803 5804 5804 5804 5804 5804 5803 5803 5803 5804 5804 5804 5804 5805 5806 5806 5806 5805 5805 5805 5805 5805 5805
5770 5771 5771 5772 5772 5773 5774 5774 5774 5774 5776 5778 5779 5781 5781 5782 5783 5784 5785 5785 5785 5786 5787 5787 5788 5788 5788 5788 5789 5790 5791 5793 5793 5794 5795 5795 5795 5795 5796 5796 5796 5796 5797 5798 5798 5799 5799 5800 5801 5801 5802 5802 5802 5802 5802 5802 5802 5803 5803 5802 5802 5803 5803 5803 5803 5803 5803 5803 5803 5803 5803 5803 5803 5804 5804 5805 5805 5805 5805 5804 5804 5804 5804 5804 5804
5770 5769 5769 5770 5770 5771 5771 5772 5772 5772 5774 5775 5777 5779 5779 5780 5780 5782 5782 5782 5783 5784 5785 5785 5786 5786 5787 5787 5787 5788 5789 5790 5791 5792 5793 5794 5794 5794 5794 5795 5795 5795 5796 5797 5797 5797 5798 5799 5799 5800 5801 5801 5801 5802 5802 5802 5802 5803 5803 5803 5803 5802 5802 5802 5803 5803 5803 5803 5803 5802 5803 5803 5803 5804 5804 5804 5805 5805 5805 5804 5804 5804 5804 5804 5804
5768 5767 5767 5767 5768 5769 5769 5769 5770 5770 5771 5773 5774 5775 5777 5777 5778 5779 5779 5779 5781 5782 5783 5783 5784 5784 5785 5786 5786 5787 5788 5789 5789 5790 5791 5792 5792 5793 5793 5793 5794 5794 5795 5795 5796 5796 5797 5797 5798 5799 5799 5800 5800 5801 5801 5802 5802 5802 5803 5803 5802 5802 5802 5802 5802 5802 5802 5802 5802 5803 5803 5804 5804 5804 5804 5804 5804 5804 5804 5804 5803 5803 5803 5803 5803
5765 5764 5764 5765 5765 5766 5766 5767 5767 5767 5768 5769 5770 5772 5774 5775 5776 5776 5777 5778 5780 5780 5780 5781 5782 5783 5783 5784 5785 5786 5787 5787 5788 5789 5789 5790 5791 5791 5792 5792 5792 5793 5793 5794 5795 5795 5795 5796 5796 5797 5798 5799 5799 5800 5801 5801 5801 5802 5802 5802 5802 5801 5801 5801 5801 5801 5801 5801 5802 5803 5803 5803 5803 5803 5803 5803 5803 5803 5803 5803 5803 5802 5802 5802 5802
5762 5762 5762 5763 5763 5763 5764 5764 5764 5764 5765 5766 5767 5769 5771 5772 5773 5774 5775 5776 5777 5777 5778 5779 5780 5781 5782 5783 5784 5785 5785 5786 5787 5787 5788 5789 5790 5790 5790 5790 5791 5791 5792 5793 5793 5794 5794 5794 5795 5796 5797 5797 5798 5798 5799 5800 5800 5801 5801 5801 5801 5801 5801 5801 5800 5800 5800 5800 5801 5801 5802 5802 5802 5802 5802 5802 5802 5802 5801 5801 5801 5801 5801 5801 5801
5760 5760 5761 5761 5762 5762 5762 5762 5763 5763 5763 5764 5765 5767 5768 5770 5770 5771 5773 5774 5774 5775 5775 5776 5778 5779 5780 5781 5782 5783 5784 5785 5785 5786 5787 5788 5788 5789 5789 5789 5790 5790 5790 5791 5791 5792 5792 5793 5794 5794 5795 5796 5796 5796 5797 5798 5799 5799 5800 5800 5800 5800 5800 5800 5800 5800 5799 5799 5799 5800 5800 5800 5800 5800 5800 5801 5801 5800 5800 5800 5800 5800 5800 5800 5800
5758 5758 5759 5760 5760 5760 5761 5762 5762 5762 5762 5762 5763 5765 5766 5767 5768 5769 5771 5771 5772 5772 5773 5774 5775 5776 5777 5778 5780 5781 5782 5783 5784 5785 5785 5786 5787 5787 5788 5788 5789 5789 5789 5789 5789 5790 5790 5791 5792 5792 5793 5794 5794 5795 5795 5796 5797 5798 5798 5798 5798 5798 5799 5799 5799 5799 5798 5798 5798 5798 5798 5798 5799 5799 5799 5799 5799 5799 5799 5799 5799 5799 5799 5798 5799